• In Netherlands
  • List of Countries
  • For 7 days
  • Water Temperature
  • Satellite Maps
  • Weather Map
  • Weather Widgets
  • user-avatar
    Login

    Hourly Weather Sliven

    Today, 22 September, Friday

    Time Temperature Precipitation Wind Pressure Humidity
    00:00 +12°C° 0 mm 4 mps 731 mmHg 66%
    01:00 +12°C° 0 mm 3 mps 731 mmHg 68%
    02:00 +11°C° 0 mm 3 mps 731 mmHg 70%
    03:00 +11°C° 0 mm 3 mps 731 mmHg 70%
    04:00 +10°C° 0 mm 3 mps 731 mmHg 71%
    05:00 +10°C° 0 mm 2 mps 731 mmHg 72%
    06:00 +11°C° 0 mm 3 mps 731 mmHg 66%
    07:00 +12°C° 0 mm 3 mps 731 mmHg 61%
    08:00 +13°C° 0 mm 4 mps 732 mmHg 55%
    09:00 +15°C° 0 mm 4 mps 732 mmHg 50%
    10:00 +17°C° 0 mm 4 mps 732 mmHg 45%
    11:00 +19°C° 0 mm 4 mps 732 mmHg 40%
    12:00 +19°C° 0 mm 5 mps 732 mmHg 39%
    13:00 +19°C° 0 mm 5 mps 732 mmHg 38%
    14:00 +20°C° 0 mm 5 mps 732 mmHg 37%
    15:00 +19°C° 0 mm 5 mps 732 mmHg 39%
    16:00 +19°C° 0 mm 5 mps 732 mmHg 42%
    17:00 +17°C° 0 mm 5 mps 732 mmHg 44%
    18:00 +17°C° 0 mm 4 mps 732 mmHg 48%
    19:00 +14°C° 0 mm 4 mps 733 mmHg 53%
    20:00 +13°C° 0 mm 3 mps 733 mmHg 57%
    21:00 +12°C° 0 mm 3 mps 733 mmHg 60%
    22:00 +12°C° 0 mm 3 mps 733 mmHg 62%
    23:00 +11°C° 0 mm 3 mps 734 mmHg 64%

    Tomorrow, 23 September, Saturday

    Time Temperature Precipitation Wind Pressure Humidity
    00:00 +12°C° 0 mm 2 mps 734 mmHg 66%
    01:00 +12°C° 0 mm 2 mps 734 mmHg 68%
    02:00 +10°C° 0 mm 2 mps 734 mmHg 69%
    03:00 +10°C° 0 mm 2 mps 734 mmHg 71%
    04:00 +10°C° 0 mm 2 mps 734 mmHg 73%
    05:00 +10°C° 0 mm 2 mps 734 mmHg 74%
    06:00 +12°C° 0 mm 2 mps 734 mmHg 70%
    07:00 +12°C° 0 mm 3 mps 735 mmHg 65%
    08:00 +13°C° 0 mm 3 mps 735 mmHg 61%
    09:00 +16°C° 0 mm 3 mps 735 mmHg 55%
    10:00 +18°C° 0 mm 4 mps 735 mmHg 48%
    11:00 +20°C° 0 mm 4 mps 735 mmHg 42%
    12:00 +21°C° 0 mm 4 mps 735 mmHg 39%
    13:00 +22°C° 0 mm 3 mps 735 mmHg 37%
    14:00 +22°C° 0 mm 3 mps 735 mmHg 34%
    15:00 +22°C° 0 mm 3 mps 735 mmHg 34%
    16:00 +23°C° 0 mm 2 mps 735 mmHg 35%
    17:00 +21°C° 0 mm 2 mps 734 mmHg 36%
    18:00 +20°C° 0 mm 2 mps 735 mmHg 40%
    19:00 +18°C° 0 mm 2 mps 735 mmHg 44%
    20:00 +16°C° 0 mm 1 mps 735 mmHg 49%
    21:00 +16°C° 0 mm 1 mps 735 mmHg 50%
    22:00 +15°C° 0 mm 1 mps 735 mmHg 51%
    23:00 +15°C° 0 mm 1 mps 735 mmHg 51%

    Day after tomorrow, 24 September, Sunday

    Time Temperature Precipitation Wind Pressure Humidity
    00:00 +15°C° 0 mm 1 mps 735 mmHg 53%
    01:00 +14°C° 0 mm 1 mps 735 mmHg 54%
    02:00 +14°C° 0 mm 1 mps 735 mmHg 55%
    03:00 +14°C° 0 mm 1 mps 735 mmHg 56%
    04:00 +13°C° 0 mm 1 mps 735 mmHg 57%
    05:00 +13°C° 0 mm 1 mps 735 mmHg 58%
    06:00 +15°C° 0 mm 1 mps 735 mmHg 54%
    07:00 +16°C° 0 mm 1 mps 735 mmHg 49%
    08:00 +17°C° 0 mm 0 mps 736 mmHg 45%
    09:00 +21°C° 0 mm 1 mps 736 mmHg 40%
    10:00 +23°C° 0 mm 1 mps 736 mmHg 35%
    11:00 +25°C° 0 mm 1 mps 736 mmHg 31%
    12:00 +26°C° 0 mm 1 mps 736 mmHg 29%
    13:00 +26°C° 0 mm 1 mps 736 mmHg 28%
    14:00 +27°C° 0 mm 1 mps 736 mmHg 26%
    15:00 +27°C° 0 mm 1 mps 735 mmHg 28%
    16:00 +26°C° 0 mm 1 mps 735 mmHg 29%
    17:00 +26°C° 0 mm 1 mps 735 mmHg 30%
    18:00 +24°C° 0 mm 1 mps 735 mmHg 35%
    19:00 +22°C° 0 mm 1 mps 735 mmHg 40%
    20:00 +20°C° 0 mm 1 mps 735 mmHg 45%
    21:00 +19°C° 0 mm 1 mps 735 mmHg 48%
    22:00 +18°C° 0 mm 1 mps 735 mmHg 51%
    23:00 +18°C° 0 mm 1 mps 735 mmHg 54%

    25 September, Monday

    Time Temperature Precipitation Wind Pressure Humidity
    00:00 +16°C° 0 mm 1 mps 735 mmHg 57%
    01:00 +16°C° 0 mm 1 mps 735 mmHg 59%
    02:00 +16°C° 0 mm 1 mps 735 mmHg 62%
    03:00 +15°C° 0 mm 1 mps 735 mmHg 64%
    04:00 +15°C° 0 mm 1 mps 735 mmHg 67%
    05:00 +15°C° 0 mm 1 mps 735 mmHg 69%
    06:00 +16°C° 0 mm 1 mps 735 mmHg 66%
    07:00 +18°C° 0 mm 1 mps 735 mmHg 63%
    08:00 +20°C° 0 mm 1 mps 736 mmHg 61%
    09:00 +20°C° 0 mm 2 mps 736 mmHg 55%
    10:00 +22°C° 0 mm 3 mps 736 mmHg 49%
    11:00 +24°C° 0 mm 3 mps 736 mmHg 44%
    12:00 +25°C° 0 mm 3 mps 736 mmHg 42%
    13:00 +25°C° 0 mm 4 mps 735 mmHg 40%
    14:00 +26°C° 0 mm 4 mps 735 mmHg 38%
    15:00 +25°C° 0 mm 4 mps 735 mmHg 40%
    16:00 +23°C° 0 mm 4 mps 735 mmHg 42%
    17:00 +23°C° 0 mm 4 mps 735 mmHg 44%
    18:00 +21°C° 0 mm 3 mps 735 mmHg 52%
    19:00 +20°C° 0 mm 2 mps 735 mmHg 59%
    20:00 +18°C° 0 mm 2 mps 735 mmHg 66%
    21:00 +18°C° 0 mm 2 mps 735 mmHg 71%
    22:00 +18°C° 0 mm 1 mps 735 mmHg 75%
    23:00 +16°C° 0 mm 1 mps 735 mmHg 79%

    26 September, Tuesday

    Time Temperature Precipitation Wind Pressure Humidity
    00:00 +16°C° 0 mm 1 mps 734 mmHg 81%
    01:00 +16°C° 0 mm 1 mps 734 mmHg 82%
    02:00 +15°C° 0 mm 1 mps 734 mmHg 83%
    03:00 +15°C° 0 mm 1 mps 734 mmHg 84%
    04:00 +14°C° 0 mm 1 mps 734 mmHg 84%
    05:00 +14°C° 0 mm 1 mps 734 mmHg 85%
    06:00 +15°C° 0 mm 2 mps 734 mmHg 79%
    07:00 +16°C° 0 mm 2 mps 734 mmHg 73%
    08:00 +18°C° 0 mm 2 mps 734 mmHg 67%
    09:00 +19°C° 0 mm 3 mps 734 mmHg 59%
    10:00 +21°C° 0 mm 3 mps 734 mmHg 51%
    11:00 +23°C° 0 mm 4 mps 734 mmHg 42%
    12:00 +25°C° 0 mm 4 mps 734 mmHg 40%
    13:00 +26°C° 0 mm 4 mps 734 mmHg 37%
    14:00 +26°C° 0 mm 4 mps 734 mmHg 34%
    15:00 +26°C° 0 mm 4 mps 734 mmHg 38%
    16:00 +25°C° 0 mm 4 mps 734 mmHg 42%
    17:00 +23°C° 0 mm 4 mps 734 mmHg 46%
    18:00 +21°C° 0 mm 4 mps 734 mmHg 55%
    19:00 +19°C° 0 mm 3 mps 735 mmHg 65%
    20:00 +17°C° 0 mm 3 mps 735 mmHg 74%
    21:00 +16°C° 0 mm 2 mps 735 mmHg 77%
    22:00 +15°C° 0 mm 2 mps 735 mmHg 79%
    23:00 +15°C° 0 mm 2 mps 735 mmHg 82%

    27 September, Wednesday

    Time Temperature Precipitation Wind Pressure Humidity
    00:00 +14°C° 0 mm 2 mps 735 mmHg 82%
    01:00 +14°C° 0 mm 2 mps 735 mmHg 82%
    02:00 +13°C° 0 mm 1 mps 735 mmHg 82%
    03:00 +13°C° 0 mm 1 mps 736 mmHg 81%
    04:00 +12°C° 0 mm 1 mps 736 mmHg 80%
    05:00 +12°C° 0 mm 1 mps 736 mmHg 79%
    06:00 +13°C° 0 mm 2 mps 736 mmHg 71%
    07:00 +14°C° 0 mm 2 mps 736 mmHg 62%
    08:00 +15°C° 0 mm 2 mps 737 mmHg 54%
    09:00 +17°C° 0 mm 3 mps 737 mmHg 48%
    10:00 +19°C° 0 mm 3 mps 737 mmHg 41%
    11:00 +20°C° 0 mm 4 mps 737 mmHg 35%
    12:00 +21°C° 0 mm 4 mps 737 mmHg 34%
    13:00 +22°C° 0 mm 4 mps 737 mmHg 33%
    14:00 +23°C° 0 mm 5 mps 737 mmHg 32%
    15:00 +22°C° 0 mm 5 mps 737 mmHg 35%
    16:00 +21°C° 0 mm 5 mps 737 mmHg 39%
    17:00 +20°C° 0 mm 5 mps 737 mmHg 43%
    18:00 +18°C° 0 mm 4 mps 737 mmHg 48%
    19:00 +15°C° 0 mm 4 mps 737 mmHg 53%
    20:00 +13°C° 0 mm 3 mps 737 mmHg 59%
    21:00 +13°C° 0 mm 3 mps 737 mmHg 60%
    22:00 +13°C° 0 mm 2 mps 737 mmHg 62%
    23:00 +13°C° 0 mm 2 mps 737 mmHg 63%
    Show more